Waarnemingen

Advertentie
Mijn weer
Murcia, Spanje (8430): temperatuur & dauwpunt: 15.02.2018 14:00:00 - 21.02.2018 14:00:00 (CET)Murcia, Spanje (8430): windsnelheid: 15.02.2018 14:00:00 - 21.02.2018 14:00:00 (CET)Murcia, Spanje (8430): windrichting: 15.02.2018 14:00:00 - 21.02.2018 14:00:00 (CET)Murcia, Spanje (8430): luchtdruk: 15.02.2018 14:00:00 - 21.02.2018 14:00:00 (CET)Murcia, Spanje (8430): zicht: 15.02.2018 14:00:00 - 21.02.2018 14:00:00 (CET)Murcia, Spanje (8430): neerslag: 15.02.2018 14:00:00 - 21.02.2018 14:00:00 (CET)
Datum & Tijd tt [°C] td [°C] ff [km/u] ff [kn] dd ppp [hPa] vv [km] rr [mm]
21.02.2018 14:00:00 - - - - - - - -
21.02.2018 13:00:00 14,0 0,9 15 8 WNW 1006,8 30 -
21.02.2018 12:00:00 12,7 1,1 16 9 NW 1007,7 20 0,0
21.02.2018 11:00:00 12,3 0,7 21 11 NW 1007,8 19 0,0
21.02.2018 10:00:00 11,1 0,5 13 7 WNW 1008,1 30 -
21.02.2018 09:00:00 10,6 0,3 9 5 W 1008,2 20 0,0
21.02.2018 08:00:00 9,9 -0,1 16 9 WNW 1008,4 20 0,0
21.02.2018 07:00:00 10,2 -0,1 21 11 WNW 1008,5 30 -
21.02.2018 06:00:00 10,6 0,0 18 10 WNW 1008,7 20 0,0
21.02.2018 05:00:00 11,2 0,0 21 11 WNW 1009,1 20 0,0
21.02.2018 04:00:00 11,8 0,2 16 9 WNW 1009,5 20 -
21.02.2018 03:00:00 12,6 0,7 18 10 WNW 1010,5 20 0,0
21.02.2018 02:00:00 13,1 2,0 15 8 WNW 1011,2 20 0,0
21.02.2018 01:00:00 14,5 2,1 16 9 WNW 1011,6 20 -
21.02.2018 00:00:00 14,9 3,1 15 8 WNW 1011,3 20 0,0
20.02.2018 23:00:00 16,0 3,1 18 10 WNW 1011,4 20 0,0
20.02.2018 22:00:00 16,7 3,4 13 7 NW 1011,6 20 -
20.02.2018 21:00:00 17,8 2,9 16 9 NW 1011,3 20 0,0
20.02.2018 20:00:00 18,3 3,0 16 9 WNW 1011,2 20 0,0
20.02.2018 19:00:00 19,5 3,2 18 10 WNW 1011,0 30 -
20.02.2018 18:00:00 21,0 3,2 15 8 WNW 1010,8 20 0,0
20.02.2018 17:00:00 20,6 3,3 16 9 W 1010,9 20 0,0
20.02.2018 16:00:00 21,4 4,0 21 11 WNW 1011,4 30 -
20.02.2018 15:00:00 20,8 4,4 18 10 NW 1012,2 20 0,0
20.02.2018 14:00:00 19,8 4,7 21 11 NW 1013,3 20 0,0
20.02.2018 13:00:00 19,2 4,9 21 11 NNW 1014,0 30 -
20.02.2018 12:00:00 18,3 5,2 16 9 WNW 1014,5 20 0,0
20.02.2018 11:00:00 16,5 5,1 22 12 WNW 1015,1 19 0,0
20.02.2018 10:00:00 14,6 5,1 15 8 WNW 1015,4 30 -
20.02.2018 09:00:00 9,5 5,3 8 4 Z 1015,8 14 0,0
20.02.2018 08:00:00 9,8 4,4 9 5 W 1015,2 18 0,0
20.02.2018 07:00:00 8,2 5,1 11 6 WZW 1015,3 20 -
20.02.2018 06:00:00 7,6 5,4 4 2 Z 1015,5 16 0,0
20.02.2018 05:00:00 8,3 5,8 5 3 WZW 1015,6 20 0,0
20.02.2018 04:00:00 7,9 6,2 4 2 W 1015,8 9 -
20.02.2018 03:00:00 9,0 7,1 4 2 W 1016,3 10 0,0
20.02.2018 02:00:00 9,5 7,6 5 3 ZZW 1016,6 11 0,0
20.02.2018 01:00:00 10,1 8,0 4 2 W 1016,7 10 -
20.02.2018 00:00:00 10,8 8,4 5 3 ZW 1016,8 12 0,0
19.02.2018 23:00:00 11,1 8,5 2 1 WNW 1017,2 14 0,0
19.02.2018 22:00:00 11,5 9,1 5 3 W 1017,4 15 -
19.02.2018 21:00:00 12,2 8,8 5 3 NNW 1017,2 18 0,0
19.02.2018 20:00:00 14,1 8,9 5 3 ZW 1016,8 15 0,0
19.02.2018 19:00:00 15,1 8,8 5 3 ZZO 1016,5 20 -
19.02.2018 18:00:00 17,2 7,8 9 5 ZO 1015,6 20 0,0
19.02.2018 17:00:00 19,2 1,6 4 2 ZO 1015,5 20 0,0
19.02.2018 16:00:00 19,4 1,8 5 3 ZZW 1015,9 20 -
19.02.2018 15:00:00 18,9 2,3 5 3 ZZW 1016,2 20 0,0
19.02.2018 14:00:00 17,3 4,3 5 3 NNW 1016,9 18 0,0
19.02.2018 13:00:00 16,7 5,3 5 3 Z 1017,8 15 -
19.02.2018 12:00:00 15,2 5,7 5 3 WZW 1018,5 18 0,0
19.02.2018 11:00:00 13,3 6,6 5 3 ZW 1018,7 13 0,0
19.02.2018 10:00:00 12,0 6,1 8 4 W 1018,8 10 -
19.02.2018 09:00:00 10,7 7,4 4 2 WNW 1018,7 16 0,0
19.02.2018 08:00:00 10,7 9,5 4 2 WZW 1018,4 10 0,0
19.02.2018 07:00:00 10,9 9,7 5 3 WZW 1017,9 10 -
19.02.2018 06:00:00 10,7 9,3 2 1 Z 1018,0 8 0,0
19.02.2018 05:00:00 11,2 9,6 2 1 WNW 1017,9 9 0,0
19.02.2018 04:00:00 11,5 9,7 4 2 NW 1018,3 12 -
19.02.2018 03:00:00 11,4 9,8 4 2 W 1018,8 15 0,0
19.02.2018 02:00:00 11,6 9,7 2 1 W 1019,2 17 0,0
19.02.2018 01:00:00 11,9 9,8 4 2 O 1019,8 17 -
19.02.2018 00:00:00 11,9 10,0 9 5 NNO 1020,1 18 0,0
18.02.2018 23:00:00 12,1 10,2 8 4 O 1020,4 16 0,0
18.02.2018 22:00:00 12,2 10,1 8 4 ONO 1020,8 13 -
18.02.2018 21:00:00 12,2 10,3 11 6 ONO 1020,8 17 0,0
18.02.2018 20:00:00 12,4 10,3 9 5 ONO 1020,8 18 0,0
18.02.2018 19:00:00 12,6 10,1 11 6 ONO 1020,6 6 -
18.02.2018 18:00:00 13,6 10,4 13 7 O 1020,3 20 0,0
18.02.2018 17:00:00 14,2 10,4 13 7 O 1020,3 20 0,0
18.02.2018 16:00:00 14,4 10,0 11 6 O 1020,6 8 -
18.02.2018 15:00:00 14,7 10,7 9 5 ONO 1020,7 20 0,0
18.02.2018 14:00:00 14,0 10,2 8 4 O 1021,5 20 0,0
18.02.2018 13:00:00 13,6 10,2 9 5 ONO 1022,2 10 -
18.02.2018 12:00:00 13,4 10,0 8 4 ONO 1022,7 16 0,0
18.02.2018 11:00:00 13,1 8,6 4 2 OZO 1023,0 14 0,0
18.02.2018 10:00:00 12,9 8,2 4 2 ZZW 1022,7 10 -
18.02.2018 09:00:00 12,3 8,2 4 2 ZO 1022,5 19 0,0
18.02.2018 08:00:00 12,2 8,1 9 5 WNW 1021,9 17 0,0
18.02.2018 07:00:00 11,5 8,7 5 3 WZW 1021,8 10 -
18.02.2018 06:00:00 11,1 8,5 0 0 N 1021,7 10 0,0
18.02.2018 05:00:00 12,0 8,5 4 2 WZW 1021,8 11 0,0
18.02.2018 04:00:00 12,1 8,8 9 5 NW 1021,7 10 -
18.02.2018 03:00:00 12,9 8,8 2 1 W 1022,0 13 0,0
18.02.2018 02:00:00 13,2 8,9 0 0 N 1022,3 13 0,0
18.02.2018 01:00:00 13,5 9,3 2 1 W 1022,4 12 -
18.02.2018 00:00:00 13,6 10,2 5 3 W 1022,4 10 0,0
17.02.2018 23:00:00 14,0 10,2 0 0 N 1022,3 11 0,0
17.02.2018 22:00:00 13,9 10,3 8 4 ONO 1022,1 11 -
17.02.2018 21:00:00 14,0 9,6 9 5 NO 1021,5 12 0,0
17.02.2018 20:00:00 14,9 9,9 16 9 ONO 1020,7 14 0,0
17.02.2018 19:00:00 15,9 10,0 18 10 NO 1019,8 10 -
17.02.2018 18:00:00 18,8 9,8 21 11 ONO 1018,6 18 0,0
17.02.2018 17:00:00 22,7 7,3 13 7 NW 1017,7 20 0,0
17.02.2018 16:00:00 22,6 6,8 18 10 NW 1017,7 25 -
17.02.2018 15:00:00 22,2 6,8 13 7 WNW 1018,1 20 0,0
17.02.2018 14:00:00 21,0 7,2 18 10 WNW 1019,1 18 0,0
17.02.2018 13:00:00 19,9 7,3 22 12 NW 1020,1 20 -
17.02.2018 12:00:00 19,2 6,6 22 12 NW 1020,8 16 0,0
17.02.2018 11:00:00 17,6 7,6 11 6 W 1021,2 20 0,0
17.02.2018 10:00:00 13,9 8,7 8 4 ZW 1021,6 15 -
17.02.2018 09:00:00 10,1 7,2 4 2 ZW 1022,1 10 0,0
17.02.2018 08:00:00 8,2 6,3 2 1 W 1021,8 10 0,0
17.02.2018 07:00:00 7,8 6,7 4 2 W 1021,4 10 -
17.02.2018 06:00:00 8,3 6,1 2 1 Z 1021,2 7 0,0
17.02.2018 05:00:00 9,0 7,1 4 2 WZW 1021,1 11 0,0
17.02.2018 04:00:00 9,8 7,4 9 5 WNW 1021,2 10 -
17.02.2018 03:00:00 10,1 7,7 2 1 ZZW 1021,7 8 0,0
17.02.2018 02:00:00 10,5 8,3 4 2 ZW 1021,8 9 0,0
17.02.2018 01:00:00 10,4 8,3 5 3 W 1022,3 9 -
17.02.2018 00:00:00 11,3 7,8 2 1 WNW 1022,6 10 0,0
16.02.2018 23:00:00 12,7 8,4 4 2 Z 1022,4 13 0,0
16.02.2018 22:00:00 13,7 7,9 5 3 ZO 1022,2 19 -
16.02.2018 21:00:00 14,0 7,5 4 2 NW 1021,9 20 0,0
16.02.2018 20:00:00 16,0 7,5 8 4 WZW 1021,7 20 0,0
16.02.2018 19:00:00 17,8 9,7 4 2 ZO 1021,1 10 -
16.02.2018 18:00:00 19,8 8,8 11 6 ONO 1020,2 20 0,0
16.02.2018 17:00:00 20,5 8,5 11 6 NO 1020,4 20 0,0
16.02.2018 16:00:00 20,4 8,7 9 5 N 1020,9 15 -
16.02.2018 15:00:00 21,3 7,9 5 3 O 1021,2 20 0,0
16.02.2018 14:00:00 21,2 7,4 5 3 WZW 1022,1 18 0,0
16.02.2018 13:00:00 19,6 8,3 4 2 OZO 1023,2 20 -
16.02.2018 12:00:00 17,6 8,4 4 2 Z 1024,4 20 0,0
16.02.2018 11:00:00 15,2 8,4 4 2 W 1024,7 18 0,0
16.02.2018 10:00:00 13,5 8,1 4 2 NW 1024,8 18 -
16.02.2018 09:00:00 10,5 7,2 4 2 ZW 1024,7 18 0,0
16.02.2018 08:00:00 9,0 6,1 4 2 ZZW 1024,1 15 0,0
16.02.2018 07:00:00 9,6 7,0 5 3 NW 1023,8 15 -
16.02.2018 06:00:00 9,8 7,2 5 3 WNW 1024,0 17 0,0
16.02.2018 05:00:00 9,1 6,4 4 2 WZW 1023,9 19 0,0
16.02.2018 04:00:00 9,2 6,6 4 2 W 1024,2 18 -
16.02.2018 03:00:00 9,5 6,9 5 3 WNW 1024,4 19 0,0
16.02.2018 02:00:00 9,9 6,2 4 2 Z 1024,8 17 0,0
16.02.2018 01:00:00 10,6 6,7 4 2 ZW 1025,1 15 -
16.02.2018 00:00:00 11,9 6,2 4 2 W 1025,0 10 0,0
15.02.2018 23:00:00 14,0 6,6 5 3 W 1024,7 20 0,0
15.02.2018 22:00:00 13,4 6,5 8 4 W 1024,5 20 -
15.02.2018 21:00:00 14,0 7,3 2 1 WNW 1024,5 19 0,0
15.02.2018 20:00:00 16,4 7,3 8 4 Z 1024,1 19 0,0
15.02.2018 19:00:00 18,6 7,1 11 6 ZW 1023,4 25 -
15.02.2018 18:00:00 22,2 6,4 4 2 ZZO 1022,6 20 0,0
15.02.2018 17:00:00 22,7 6,4 8 4 ZW 1022,6 19 0,0
15.02.2018 16:00:00 22,7 6,0 8 4 ZW 1022,8 20 -
15.02.2018 15:00:00 22,2 6,4 9 5 W 1023,0 20 0,0
15.02.2018 14:00:00 21,2 6,7 5 3 W 1023,4 17 0,0

tt = temperatuur
td = dauwpunt
ff = windsnelheid
dd = windrichting
ppp = luchtdruk
vv = zicht
rr = neerslag

Weerstations in de omgeving